Regional Weather Roundup
Issued by NWS

Home | Current Version | Previous Version | Text Only | Print | Product List | Glossary Off
Versions: 1 2 3 4 5 6 7 8 9 10 11 12 13 14 15 16 17 18 19 20 21 22 23 24 25 26 27 28 29 30 31 32 33 34 35 36 37 38 39 40 41 42 43 44 45 46 47 48 49 50

000
ASUS45 KPSR 190310
RWRAZ

ARIZONA HOURLY REGIONAL WEATHER ROUNDUP
NATIONAL WEATHER SERVICE PHOENIX AZ
800 PM MST WED JAN 18 2017

NOTE: FAIR INDICATES FEW OR NO CLOUDS BELOW 12,000 FEET WITH NO
SIGNIFICANT WEATHER AND/OR OBSTRUCTIONS TO VISIBILITY.

AZZ001>003-036-190400-
NORTHWEST ARIZONA

CITY           SKY/WX    TMP DP  RH WIND       PRES   REMARKS
BULLHEAD CITY  MOCLDY    54  32  43 CALM      30.02F
KINGMAN        PTCLDY    43  26  51 S8        30.03F
$$

AZZ004>008-015-016-018-190400-
NORTH CENTRAL ARIZONA

CITY           SKY/WX    TMP DP  RH WIND       PRES   REMARKS
GRAND CANYON   CLEAR     25  23  92 CALM      30.05S
WILLIAMS       CLEAR     36  23  60 SW8       30.07R WCI  29
PRESCOTT       CLEAR     41  31  67 SW7       30.08R
FLAGSTAFF      CLEAR     32  27  81 W5        30.06S WCI  27
PAYSON         CLEAR     39  36  87 CALM      30.11R
PAGE           CLEAR     41  28  60 SE3       29.98S
$$

AZZ009>014-017-190400-
NORTHEAST ARIZONA

CITY           SKY/WX    TMP DP  RH WIND       PRES   REMARKS
WINSLOW        CLEAR     38  32  79 SW6       30.02F WCI  33
SAINT JOHNS    CLEAR     37  30  75 SW10      30.03S WCI  30
SHOW LOW       CLEAR     32  28  86 S12       30.08R WCI  23
$$

AZZ023-190400-
GREATER PHOENIX AREA

CITY           SKY/WX    TMP DP  RH WIND       PRES   REMARKS
PHOENIX        CLEAR     59  41  51 CALM      30.02S
BUCKEYE        CLEAR     50  43  76 N7        30.05S
GLENDALE       PTCLDY    57  39  51 CALM      30.05R
LUKE AFB       CLEAR     54  42  65 NW6       30.03R
DEER VALLEY    CLEAR     55  41  59 CALM      30.04R
SCOTTSDALE     CLEAR     56  41  57 CALM      30.05R
MESA-FALCON    CLEAR    N/A N/A N/A S6        30.02R
MESA-GATEWAY   PTCLDY    55  39  54 CALM      30.05R
CHANDLER       CLEAR     57  41  54 SW7       30.04R
$$

AZZ027-028-190400-
SOUTHWEST MARICOPA COUNTY AND PINAL COUNTY

CITY           SKY/WX    TMP DP  RH WIND       PRES   REMARKS
CASA GRANDE    CLEAR     52  41  66 NE6       30.05R
$$

AZZ503-504-507>509-190400-
SOUTHEAST ARIZONA

CITY           SKY/WX    TMP DP  RH WIND       PRES   REMARKS
TUCSON         CLEAR     55  40  56 CALM      30.07R
DAVIS-MONTHAN  CLEAR     50  42  73 CALM      30.06R
RYAN FIELD     CLEAR     50  43  76 S6        30.07R
NOGALES        CLEAR     44  33  65 SE3       30.07S
SIERRA VISTA   CLEAR     44  34  66 SW9       30.09S
DOUGLAS        CLEAR     44  37  76 N9        30.07S
SAFFORD        CLEAR     47  40  76 SW5       30.03S
$$

AZZ020-021-025-026-031-190400-
SOUTHWEST ARIZONA

CITY           SKY/WX    TMP DP  RH WIND       PRES   REMARKS
YUMA           CLEAR     58  30  34 S3        30.05R
$$

CAZ031-033-041-043-047-048-061-190400-
SOUTHERN CALIFORNIA

CITY           SKY/WX    TMP DP  RH WIND       PRES   REMARKS
DOWNTOWN L.A.  LGT RAIN  57  49  74 CALM      30.13S
L.A. AIRPORT   RAIN      55  49  80 W7        30.12F
SAN DIEGO      CLOUDY    59  48  67 NW6       30.18R
BURBANK        LGT RAIN  53  44  71 CALM      30.11F
ONTARIO        CLOUDY    53  45  74 W12       30.13R
RIVERSIDE      CLOUDY    53  47  79 W6        30.13R
PALM SPRINGS   CLOUDY    59  35  40 VRB6      30.06R
EL CENTRO NAS  CLOUDY    63  40  42 SW10      30.06R
IMPERIAL       CLOUDY    59  41  51 SW6       30.04R
BLYTHE         MOCLDY    58  34  40 SW6       30.04R
NEEDLES        MOCLDY    58  28  32 SW8       30.02F
$$

NVZ020-UTZ003-190400-
SOUTHERN NEVADA-UTAH

CITY           SKY/WX    TMP DP  RH WIND       PRES   REMARKS
LAS VEGAS      CLOUDY    53  26  35 CALM      29.94F
SALT LAKE CITY PTCLDY    24  21  88 CALM      29.94F FOG
$$

NMZ009-TXZ055-190400-
NEW MEXICO-WEST TEXAS

CITY           SKY/WX    TMP DP  RH WIND       PRES   REMARKS
ALBUQUERQUE    MOCLDY    43  31  62 N8        30.00S
EL PASO        PTCLDY    52  36  54 W13       30.02S
$$


........................KEY........................
SKY/WX - SKY CONDITION/WEATHER
TMP    - TEMPERATURE IN FAHRENHEIT
DP     - DEW POINT IN FAHRENHEIT
RH     - RELATIVE HUMIDITY IN PERCENT
WIND   - DIRECTION AND SPEED IN MILES PER HOUR (MPH)
VRB    - VARIABLE WIND DIRECTION
PRES   - MEAN SEA LEVEL PRESSURE IN INCHES OF MERCURY
         F - FALLING PRESSURE   R - RISING PRESSURE
         S - STEADY PRESSURE
VSB    - VISIBILITY IN MILES
HX     - HEAT INDEX IN FAHRENHEIT
WCI    - WIND CHILL INDEX IN FAHRENHEIT
TC     - TEMPERATURE IN CELSIUS WHICH IS ALSO KNOWN AS
         TEMPERATURE IN CENTIGRADE
AFB    - AIR FORCE BASE
         LUKE AFB IS LUKE AIR FORCE BASE
         DAVIS-MONTHAN IS DAVIS-MONTHAN AIR FORCE BASE
NAS    - NAVAL AIR STATION
         EL CENTRO NAS IS EL CENTRO NAVAL AIR STATION
N/A    - NOT AVAILABLE




USA.gov is the U.S. government's official web portal to all federal, state and local government web resources and services.